Wind_Speed
12 12 13 14 14 15 16 16 15 15 16 16 17 17 17 17 18 19 20 20 20 21 21 22 23 24 25 25 26 26 26 27 26 26 27 28 29 29 30 30 31 31 31
10 10 11 12 12 13 13 14 15 16 15 15 16 16 16 17 18 18 19 19 19 20 21 22 22 23 24 24 25 25 26 26 27 27 27 27 28 29 29 29 30 30 30
10 10 11 10 10 11 12 12 13 13 14 14 14 14 15 16 17 17 17 18 19 20 21 21 22 23 24 24 25 25 26 27 27 27 27 27 28 28 28 29 29 30 31
9 9 9 9 10 10 10 11 11 11 12 13 13 14 15 15 15 16 17 17 18 19 21 22 23 23 24 24 24 25 26 27 27 27 26 26 27 28 29 29 29 30 30
8 8 8 8 9 10 10 10 10 11 11 12 13 14 15 15 15 16 17 18 18 19 20 21 22 23 23 23 24 24 26 26 27 26 26 27 27 27 28 28 28 28 28
8 8 9 9 9 9 10 10 10 11 11 12 13 14 14 15 15 15 16 17 17 18 19 20 21 22 22 23 24 24 25 25 25 26 26 26 27 28 28 28 29 29 28
8 8 9 9 9 9 10 9 9 10 11 11 12 12 13 14 15 15 16 16 17 18 19 20 21 22 22 23 24 24 25 25 26 26 27 27 29 29 28 28 29 28 27
7 7 8 8 8 8 8 8 8 9 10 10 11 12 12 13 14 15 16 16 17 18 19 21 21 22 23 23 24 25 26 26 27 28 28 29 29 29 28 28 28 27 27
5 6 6 6 7 7 7 7 8 9 9 9 11 11 12 13 14 15 15 16 18 20 21 22 23 23 24 25 25 26 27 27 28 29 29 30 29 29 29 28 28 28 27
4 4 4 5 5 5 6 6 7 8 8 9 11 12 13 14 15 16 17 17 19 21 22 23 25 25 25 26 26 27 28 28 29 29 29 29 29 29 28 27 27 27 27
3 3 3 4 4 5 5 6 7 8 9 10 11 13 13 14 15 17 18 18 20 22 23 24 25 25 26 27 28 29 30 30 30 30 30 30 30 29 28 27 27 26 26
3 4 4 5 5 5 5 6 7 8 9 10 12 13 14 15 16 18 18 19 21 22 23 24 25 26 27 28 29 30 31 30 30 31 30 30 29 27 27 27 27 27 27
4 4 5 6 6 6 6 6 7 8 9 10 12 13 15 16 18 19 20 20 21 22 23 24 25 27 28 29 30 30 31 31 31 31 30 29 28 27 26 26 26 26 26
4 4 5 6 6 6 6 7 8 8 9 11 12 14 15 17 18 19 20 20 22 23 24 25 26 27 29 30 31 31 32 32 31 31 30 29 28 27 25 24 24 24 24
5 5 5 6 6 6 7 7 8 8 10 12 13 15 16 17 19 20 20 21 22 24 25 26 28 29 30 31 32 32 33 32 31 30 29 28 27 27 26 25 25 24 24
6 6 6 6 6 7 7 7 8 9 11 13 14 16 18 19 21 22 22 22 23 25 26 28 29 30 31 32 32 33 33 32 31 29 29 28 28 27 27 26 25 24 24
6 6 6 7 7 7 8 8 10 11 12 14 16 18 19 21 22 23 23 24 25 27 28 29 30 31 31 32 33 33 32 31 31 30 30 29 29 28 26 25 24 23 23
6 6 7 7 7 8 9 10 11 13 14 16 17 19 20 21 22 23 24 25 27 28 28 29 30 31 31 32 33 33 32 31 31 31 30 29 28 27 26 25 23 22 21
6 6 7 7 8 9 10 11 12 14 16 17 18 19 21 22 22 23 25 26 28 28 28 29 30 30 31 32 32 32 31 31 31 31 30 29 28 27 25 24 23 22 21
6 7 7 7 8 9 10 12 13 14 16 17 19 20 21 22 23 24 26 27 28 28 28 29 30 30 31 31 31 31 31 31 31 31 30 29 29 27 26 25 23 22 21
6 7 8 8 9 10 11 12 13 14 16 18 20 21 22 23 24 26 27 29 29 30 30 30 30 31 30 30 30 30 31 31 31 31 31 30 29 28 26 25 24 22 21
7 7 8 9 10 11 12 13 14 15 16 18 20 21 23 24 25 26 28 29 29 30 30 30 31 31 30 30 29 30 30 31 31 31 32 31 30 29 27 25 24 22 21
7 8 8 9 10 11 12 13 14 15 17 18 20 22 23 24 26 27 28 29 29 29 29 30 31 30 30 30 30 29 30 30 31 31 31 31 30 29 27 25 24 23 21
8 8 9 10 11 12 13 14 15 16 17 19 21 22 24 25 26 27 28 29 29 29 29 30 31 30 30 31 30 30 30 30 31 31 31 30 30 29 27 26 25 23 22
9 9 9 10 11 12 13 14 15 17 18 20 21 23 24 25 26 27 28 29 29 29 29 30 30 30 30 30 30 30 30 31 31 31 31 30 30 29 28 26 25 24 23
10 10 10 11 12 13 14 15 16 17 19 21 22 23 24 25 26 27 28 28 29 29 29 29 29 29 29 29 30 30 30 30 31 31 31 30 29 29 28 27 25 24 23
Wind_Direction
276 267 270 274 276 278 282 280 278 284 287 284 287 289 289 289 290 292 295 296 296 297 297 298 298 298 298 298 298 298 298 297 294 292 290 288 287 286 285 283 280 277 275
280 279 275 277 280 283 286 285 284 285 288 289 290 290 292 294 294 295 297 298 297 298 299 300 300 300 299 299 299 300 300 300 298 295 292 290 288 288 286 284 282 279 275
284 285 284 285 290 293 292 292 290 288 289 291 291 294 298 298 296 296 298 299 300 301 302 303 304 304 304 303 302 300 300 301 301 299 295 292 290 289 288 286 282 279 276
285 288 289 289 293 298 299 298 296 294 295 294 296 300 301 303 302 302 302 302 303 304 305 306 306 306 306 305 303 302 301 301 301 301 298 296 295 292 290 288 285 283 279
284 286 288 291 297 300 301 300 300 301 303 302 302 302 304 306 308 306 305 304 305 308 310 312 313 312 310 309 307 305 305 305 303 302 300 299 298 297 294 291 289 286 282
285 287 288 292 297 300 301 303 302 302 303 306 306 305 307 307 309 311 312 310 310 315 318 319 318 317 316 315 313 311 310 309 308 306 305 303 302 301 297 294 291 288 284
286 285 287 290 294 298 297 301 306 308 310 311 312 311 312 311 313 317 320 318 318 321 322 322 322 321 321 319 317 315 314 313 310 309 307 306 305 304 300 296 292 290 286
285 287 288 288 293 296 297 304 309 312 315 315 314 319 319 318 319 321 320 320 323 324 324 323 323 322 321 321 319 317 314 313 312 311 310 308 307 305 303 299 295 292 288
289 288 287 285 292 302 304 308 315 317 319 322 323 327 325 322 323 324 324 324 324 325 325 325 325 324 322 322 320 318 316 314 313 312 310 309 307 305 303 300 297 292 288
303 299 300 306 310 314 313 319 324 324 329 336 335 333 330 328 329 328 326 325 326 327 327 326 326 325 324 323 322 320 318 316 315 313 311 309 307 304 303 301 298 295 291
335 344 345 342 335 331 333 338 341 342 345 344 341 338 336 334 333 333 331 330 329 328 327 327 327 326 326 325 325 324 322 321 318 316 313 312 310 307 303 300 299 296 292
17 19 9 356 351 350 350 353 352 349 348 346 344 343 340 338 337 336 335 333 332 331 331 330 329 329 329 329 328 326 326 324 322 319 317 315 313 309 305 302 300 298 294
14 12 3 359 358 356 354 353 352 347 347 346 344 341 339 338 336 336 335 334 333 333 333 332 332 332 332 330 329 329 328 327 325 322 320 317 314 311 307 302 299 297 295
357 354 355 355 356 353 350 348 349 351 349 346 344 343 342 340 338 336 335 334 334 335 335 334 333 332 332 331 330 330 329 328 326 326 323 319 317 313 309 305 301 297 294
358 356 355 352 350 348 347 347 349 349 348 346 345 344 343 342 341 340 338 337 337 337 336 335 334 333 332 332 331 330 330 328 328 327 326 323 322 319 314 310 306 302 297
356 355 354 353 349 346 345 347 345 344 343 343 342 342 343 342 341 341 340 339 339 338 337 336 336 334 333 332 332 332 332 331 331 329 328 328 326 322 319 314 309 305 301
350 350 349 352 352 347 345 343 341 339 339 341 341 342 341 342 342 342 341 340 339 338 338 337 336 335 335 335 336 336 335 335 334 332 330 329 327 325 322 318 313 308 304
342 346 345 344 346 348 346 343 341 341 341 341 343 344 343 343 343 342 342 341 340 339 337 336 336 336 337 338 338 338 339 338 338 337 334 332 330 328 325 323 319 314 310
335 335 339 341 344 345 342 340 340 341 341 342 344 345 345 344 343 343 342 342 342 341 340 340 340 339 339 340 341 342 342 342 342 341 339 338 336 334 331 329 325 321 316
329 331 332 337 340 343 341 341 342 344 345 346 345 346 346 346 345 344 344 344 344 343 343 343 342 341 341 342 344 344 345 345 345 344 344 343 341 339 336 334 331 328 323
321 329 329 331 331 331 333 335 338 340 342 344 344 346 346 345 344 344 345 345 344 344 344 345 345 344 344 344 346 347 347 347 347 347 347 346 345 344 341 339 337 335 331
313 317 322 328 332 331 331 335 338 340 342 343 343 344 345 344 344 344 344 345 346 346 346 346 346 346 347 346 347 348 348 348 348 348 348 348 347 346 345 344 343 341 337
309 313 316 323 326 327 331 335 337 339 339 340 342 343 343 343 344 344 344 344 346 347 347 346 346 346 347 348 348 349 349 350 350 349 350 350 351 351 350 350 348 347 344
303 309 316 322 325 328 334 336 337 336 337 339 340 342 342 342 343 343 343 344 345 345 345 346 346 346 346 348 349 349 349 351 351 351 352 352 353 353 353 352 351 349 347
301 308 313 319 325 328 330 331 334 336 338 338 339 341 342 342 342 343 343 343 344 345 345 346 347 347 347 349 350 351 351 351 352 353 353 353 354 354 355 354 353 352 351
294 303 311 316 322 327 328 330 332 335 338 339 339 340 342 342 342 342 342 343 344 345 346 347 349 349 349 350 352 353 353 353 353 354 354 355 356 356 356 356 356 355 353
Height
5777 5777 5777 5777 5777 5777 5777 5777 5776 5775 5773 5772 5770 5769 5767 5765 5764 5762 5760 5758 5755 5753 5750 5748 5745 5741 5738 5735 5732 5728 5725 5722 5719 5717 5713 5710 5707 5704 5702 5700 5698 5696 5695
5774 5774 5773 5773 5773 5772 5772 5771 5771 5770 5769 5767 5766 5764 5762 5760 5759 5756 5754 5752 5749 5747 5744 5741 5738 5734 5731 5728 5724 5721 5717 5714 5711 5708 5705 5702 5699 5695 5693 5691 5688 5687 5685
5771 5771 5770 5770 5769 5769 5768 5767 5766 5766 5765 5763 5761 5760 5758 5756 5753 5751 5749 5746 5744 5741 5738 5734 5731 5728 5725 5721 5717 5713 5710 5706 5703 5699 5696 5693 5690 5687 5685 5682 5680 5678 5676
5769 5768 5768 5767 5767 5766 5765 5764 5763 5762 5761 5759 5757 5756 5754 5751 5749 5746 5744 5741 5738 5735 5732 5728 5725 5721 5718 5714 5710 5706 5703 5699 5695 5692 5689 5685 5682 5679 5676 5673 5671 5669 5666
5767 5766 5766 5765 5764 5763 5762 5761 5760 5759 5757 5755 5754 5752 5750 5747 5744 5742 5739 5736 5733 5730 5726 5723 5719 5715 5711 5707 5703 5700 5696 5692 5688 5684 5681 5678 5674 5671 5667 5664 5662 5659 5657
5765 5764 5763 5763 5762 5761 5760 5759 5757 5755 5754 5752 5750 5748 5745 5743 5740 5737 5734 5731 5728 5725 5722 5718 5714 5709 5705 5701 5697 5693 5689 5685 5681 5677 5674 5670 5666 5662 5659 5655 5652 5650 5648
5762 5762 5761 5760 5759 5758 5757 5756 5754 5752 5751 5749 5746 5744 5742 5739 5736 5734 5730 5727 5724 5720 5717 5713 5709 5705 5700 5696 5691 5687 5682 5678 5674 5670 5666 5662 5658 5654 5650 5647 5643 5641 5639
5759 5759 5758 5758 5757 5756 5754 5753 5751 5750 5748 5746 5744 5741 5739 5736 5733 5730 5727 5724 5720 5717 5713 5709 5705 5700 5695 5691 5686 5681 5677 5672 5667 5663 5659 5654 5650 5645 5642 5638 5635 5632 5630
5757 5757 5756 5755 5754 5753 5752 5751 5749 5747 5745 5743 5741 5739 5736 5733 5731 5728 5724 5721 5717 5713 5709 5705 5700 5695 5690 5686 5681 5676 5671 5666 5661 5656 5651 5646 5642 5637 5633 5630 5627 5624 5621
5756 5756 5755 5754 5753 5752 5751 5749 5747 5745 5743 5741 5739 5736 5734 5731 5728 5725 5721 5718 5714 5710 5705 5701 5695 5690 5685 5680 5675 5670 5665 5660 5654 5649 5644 5639 5634 5629 5625 5621 5618 5615 5612
5756 5755 5754 5753 5752 5751 5750 5748 5746 5744 5742 5740 5737 5735 5732 5729 5726 5722 5718 5714 5710 5706 5701 5696 5691 5686 5680 5675 5669 5664 5658 5653 5647 5641 5636 5631 5626 5621 5617 5613 5609 5606 5603
5756 5755 5754 5753 5752 5750 5749 5747 5745 5743 5741 5739 5736 5733 5730 5727 5723 5719 5715 5711 5707 5702 5697 5692 5687 5681 5675 5670 5664 5658 5652 5646 5640 5634 5628 5623 5618 5613 5609 5605 5601 5598 5594
5757 5756 5755 5753 5752 5750 5748 5747 5745 5743 5740 5738 5735 5732 5729 5725 5721 5716 5712 5708 5703 5698 5693 5688 5682 5676 5670 5665 5659 5652 5646 5640 5633 5627 5621 5615 5610 5605 5601 5597 5593 5590 5587
5756 5755 5754 5753 5751 5750 5748 5746 5744 5742 5740 5737 5734 5731 5727 5723 5719 5714 5710 5705 5700 5695 5689 5684 5678 5672 5666 5660 5653 5647 5640 5633 5627 5620 5614 5608 5603 5598 5593 5589 5586 5582 5579
5756 5755 5754 5752 5751 5749 5748 5746 5743 5741 5739 5736 5733 5729 5725 5721 5717 5712 5707 5702 5697 5691 5686 5680 5674 5668 5662 5655 5648 5641 5634 5627 5621 5614 5608 5602 5596 5591 5586 5582 5578 5574 5571
5756 5754 5753 5752 5750 5749 5747 5745 5743 5741 5738 5735 5731 5727 5723 5719 5714 5709 5703 5698 5693 5688 5682 5676 5670 5664 5657 5650 5643 5636 5629 5622 5615 5608 5602 5596 5590 5585 5579 5574 5570 5567 5564
5756 5754 5753 5751 5750 5748 5747 5745 5742 5740 5736 5733 5729 5725 5721 5716 5711 5706 5701 5695 5690 5684 5678 5672 5666 5659 5652 5645 5638 5631 5623 5617 5610 5603 5597 5590 5585 5579 5573 5568 5563 5560 5556
5755 5754 5753 5751 5749 5748 5746 5744 5741 5738 5735 5731 5727 5723 5718 5713 5708 5703 5698 5692 5687 5681 5675 5668 5662 5655 5648 5641 5633 5626 5619 5612 5605 5598 5592 5585 5579 5573 5567 5562 5557 5553 5550
5755 5753 5752 5750 5748 5747 5745 5742 5739 5736 5733 5729 5725 5721 5716 5711 5706 5701 5695 5690 5684 5678 5671 5664 5658 5651 5644 5637 5629 5622 5615 5608 5601 5594 5587 5581 5574 5568 5562 5557 5552 5548 5544
5754 5752 5751 5749 5747 5746 5743 5741 5738 5734 5731 5727 5723 5719 5714 5709 5704 5699 5693 5687 5681 5674 5668 5661 5654 5647 5640 5633 5626 5619 5612 5605 5598 5591 5584 5577 5570 5564 5559 5553 5548 5543 5539
5752 5751 5749 5748 5746 5744 5741 5739 5736 5733 5729 5725 5721 5717 5712 5707 5702 5696 5690 5684 5678 5671 5665 5658 5651 5644 5637 5630 5623 5616 5609 5602 5595 5588 5581 5574 5568 5561 5555 5550 5544 5540 5535
5751 5749 5748 5746 5744 5742 5739 5737 5733 5730 5727 5723 5719 5715 5710 5705 5699 5693 5687 5681 5675 5668 5661 5655 5648 5641 5634 5627 5621 5614 5607 5600 5593 5586 5579 5572 5565 5559 5552 5547 5542 5537 5532
5748 5747 5746 5744 5742 5740 5737 5734 5731 5728 5725 5721 5717 5712 5707 5702 5696 5691 5684 5678 5672 5665 5658 5652 5645 5638 5632 5625 5618 5612 5605 5598 5592 5585 5578 5571 5564 5557 5551 5545 5540 5535 5530
5746 5745 5743 5741 5739 5737 5734 5731 5728 5725 5722 5718 5714 5709 5704 5699 5694 5688 5681 5675 5669 5663 5656 5649 5642 5636 5629 5623 5616 5609 5603 5596 5590 5583 5576 5569 5562 5556 5549 5544 5538 5533 5529
5743 5742 5741 5739 5737 5734 5731 5729 5726 5723 5719 5715 5711 5706 5701 5696 5690 5684 5678 5672 5666 5660 5653 5647 5640 5633 5627 5620 5614 5608 5601 5595 5588 5581 5575 5568 5561 5555 5549 5543 5537 5532 5528
5740 5739 5737 5736 5734 5731 5729 5726 5723 5719 5716 5712 5708 5703 5698 5693 5687 5681 5676 5670 5664 5657 5651 5644 5638 5632 5625 5619 5612 5606 5600 5593 5587 5580 5574 5567 5560 5554 5548 5542 5537 5532 5527